Terug naar catalogus

STARLINK-34566

ActiefCommunicatieVLEO
NORAD 64765·PAYLOAD·🇺🇸 United States

Gelanceerd Jul 8, 2025 vanaf Cape Canaveral Space Force Station

Loading…

Volgende Passages (komende 24 uur)

TLE

VersSource: CelesTrak SupGP

Epoch: Sep 14, 2026, 22:30 UTC

1 64765C 25147L   26257.93798611  .00035036  00000+0  10356-2 0  2573
2 64765  53.1570  79.6649 0000944  72.6439 284.8349 15.34359232    16

Volg STARLINK-34566 in realtime met AllMySat

Download on the App Store